STARLINK-4417 (53200 NORAD) Tracking and Keplerian Element Data

This shows tracking and keplerian element data for the satellite.

Feedback or suggestion? Click here.




ElementValue
Catalog53200
NameSTARLINK-4417
Epoch Orbit1095
Epoch Day269.840167
Epoch Year2022
RAAN329.6732
Inclination97.6545
Eccentricity0.0002025
Argument of Perigee93.4713
Mean Anonmoly266.6743
Mean Motion15.01258489
Decay Rate-2.001E-05
L11 53200U 22084M 22269.84016700 -.00002001 00000+0 -15121-3 0 9990
L22 53200 97.6545 329.6732 0002025 93.4713 266.6743 15.01258489 10958

Live tracking and technical data element details for STARLINK-4417 (NORAD 53200). STARLINK-4417 can be tracked NOW for your location showing map with azimuth and elevation plus other details from your city location.

Track the satellite on the map from your city or location and see movement details for azimuth, elevation, latitude, longitude, range, height, and movement on the map or in text.







IsCatalogInMostPopularTable: catalog: 53200, numindb: 5
Update: records affected: 1



GetName: 53200 STARLINK-4417

Hit Count: updated at: Thu, 29 Sep 2022 12:15:59 GMT